• In Latvia
  • List of Countries
  • For 7 days
  • Water Temperature
  • Satellite Maps
  • Weather Map
  • Weather Widgets
  • user-avatar
    Login

    Hourly Weather Aluksne

    Today, 25 May, Friday

    Time Temperature Precipitation Wind Pressure Humidity
    00:00 +12°C° 0 mm 2 mps 752 mmHg 80%
    01:00 +10°C° 0 mm 2 mps 752 mmHg 78%
    02:00 +9°C° 0 mm 2 mps 752 mmHg 75%
    03:00 +9°C° 0 mm 2 mps 752 mmHg 75%
    04:00 +9°C° 0 mm 2 mps 752 mmHg 74%
    05:00 +9°C° 0 mm 2 mps 753 mmHg 74%
    06:00 +10°C° 0 mm 2 mps 753 mmHg 69%
    07:00 +13°C° 0 mm 2 mps 753 mmHg 65%
    08:00 +15°C° 0 mm 2 mps 753 mmHg 61%
    09:00 +17°C° 0 mm 2 mps 753 mmHg 57%
    10:00 +19°C° 0 mm 2 mps 753 mmHg 52%
    11:00 +21°C° 0 mm 2 mps 754 mmHg 48%
    12:00 +23°C° 0 mm 2 mps 753 mmHg 46%
    13:00 +23°C° 0 mm 2 mps 753 mmHg 45%
    14:00 +24°C° 0 mm 2 mps 753 mmHg 43%
    15:00 +24°C° 0 mm 2 mps 753 mmHg 46%
    16:00 +22°C° 0 mm 3 mps 753 mmHg 48%
    17:00 +22°C° 0 mm 3 mps 753 mmHg 50%
    18:00 +20°C° 0 mm 3 mps 753 mmHg 58%
    19:00 +19°C° 0 mm 2 mps 753 mmHg 66%
    20:00 +17°C° 0 mm 2 mps 753 mmHg 73%
    21:00 +16°C° 0 mm 2 mps 753 mmHg 74%
    22:00 +14°C° 0 mm 2 mps 754 mmHg 75%
    23:00 +13°C° 0 mm 2 mps 754 mmHg 76%

    Tomorrow, 26 May, Saturday

    Time Temperature Precipitation Wind Pressure Humidity
    00:00 +12°C° 0 mm 2 mps 754 mmHg 76%
    01:00 +12°C° 0 mm 2 mps 755 mmHg 77%
    02:00 +10°C° 0 mm 2 mps 755 mmHg 77%
    03:00 +10°C° 0 mm 2 mps 755 mmHg 78%
    04:00 +10°C° 0 mm 2 mps 755 mmHg 79%
    05:00 +10°C° 0 mm 2 mps 755 mmHg 79%
    06:00 +13°C° 0 mm 2 mps 755 mmHg 72%
    07:00 +15°C° 0 mm 2 mps 755 mmHg 65%
    08:00 +17°C° 0 mm 2 mps 756 mmHg 59%
    09:00 +19°C° 0 mm 2 mps 756 mmHg 54%
    10:00 +20°C° 0 mm 3 mps 756 mmHg 49%
    11:00 +21°C° 0 mm 3 mps 755 mmHg 44%
    12:00 +22°C° 0 mm 3 mps 755 mmHg 43%
    13:00 +22°C° 0 mm 3 mps 755 mmHg 43%
    14:00 +24°C° 0 mm 3 mps 755 mmHg 42%
    15:00 +24°C° 0 mm 2 mps 754 mmHg 44%
    16:00 +24°C° 0 mm 2 mps 754 mmHg 46%
    17:00 +24°C° 0 mm 2 mps 754 mmHg 47%
    18:00 +21°C° 0 mm 2 mps 754 mmHg 55%
    19:00 +19°C° 0 mm 2 mps 754 mmHg 63%
    20:00 +18°C° 0 mm 1 mps 754 mmHg 71%
    21:00 +16°C° 0 mm 1 mps 754 mmHg 74%
    22:00 +15°C° 0 mm 2 mps 754 mmHg 77%
    23:00 +14°C° 0 mm 2 mps 754 mmHg 80%

    Day after tomorrow, 27 May, Sunday

    Time Temperature Precipitation Wind Pressure Humidity
    00:00 +13°C° 0 mm 2 mps 754 mmHg 82%
    01:00 +13°C° 0 mm 2 mps 754 mmHg 85%
    02:00 +12°C° 0 mm 2 mps 754 mmHg 88%
    03:00 +12°C° 0 mm 2 mps 754 mmHg 88%
    04:00 +12°C° 0 mm 1 mps 754 mmHg 88%
    05:00 +12°C° 0 mm 1 mps 754 mmHg 88%
    06:00 +14°C° 0 mm 1 mps 754 mmHg 80%
    07:00 +16°C° 0 mm 1 mps 754 mmHg 71%
    08:00 +20°C° 0 mm 1 mps 754 mmHg 63%
    09:00 +21°C° 0 mm 1 mps 754 mmHg 58%
    10:00 +23°C° 0 mm 1 mps 754 mmHg 52%
    11:00 +25°C° 0 mm 1 mps 754 mmHg 46%
    12:00 +26°C° 0 mm 1 mps 754 mmHg 45%
    13:00 +26°C° 0 mm 1 mps 754 mmHg 43%
    14:00 +27°C° 0 mm 1 mps 753 mmHg 41%
    15:00 +26°C° 0 mm 1 mps 753 mmHg 43%
    16:00 +26°C° 0 mm 1 mps 753 mmHg 45%
    17:00 +25°C° 0 mm 1 mps 753 mmHg 46%
    18:00 +23°C° 0 mm 1 mps 753 mmHg 54%
    19:00 +22°C° 0 mm 1 mps 753 mmHg 62%
    20:00 +20°C° 0 mm 1 mps 753 mmHg 70%
    21:00 +19°C° 0 mm 1 mps 753 mmHg 70%
    22:00 +17°C° 0 mm 2 mps 754 mmHg 70%
    23:00 +15°C° 0 mm 2 mps 754 mmHg 70%

    28 May, Monday

    Time Temperature Precipitation Wind Pressure Humidity
    00:00 +15°C° 0 mm 2 mps 754 mmHg 72%
    01:00 +14°C° 0 mm 2 mps 754 mmHg 74%
    02:00 +13°C° 0 mm 2 mps 755 mmHg 76%
    03:00 +13°C° 0 mm 2 mps 755 mmHg 74%
    04:00 +12°C° 0 mm 2 mps 755 mmHg 71%
    05:00 +12°C° 0 mm 2 mps 755 mmHg 69%
    06:00 +14°C° 0 mm 2 mps 755 mmHg 62%
    07:00 +16°C° 0 mm 2 mps 756 mmHg 55%
    08:00 +18°C° 0 mm 3 mps 756 mmHg 47%
    09:00 +19°C° 0 mm 3 mps 756 mmHg 44%
    10:00 +20°C° 0 mm 3 mps 756 mmHg 40%
    11:00 +22°C° 0 mm 3 mps 756 mmHg 36%
    12:00 +22°C° 0 mm 3 mps 756 mmHg 36%
    13:00 +24°C° 0 mm 2 mps 756 mmHg 35%
    14:00 +24°C° 0 mm 2 mps 756 mmHg 35%
    15:00 +24°C° 0 mm 2 mps 756 mmHg 36%
    16:00 +24°C° 0 mm 2 mps 755 mmHg 37%
    17:00 +24°C° 0 mm 2 mps 755 mmHg 39%
    18:00 +21°C° 0 mm 2 mps 755 mmHg 47%
    19:00 +20°C° 0 mm 1 mps 755 mmHg 55%
    20:00 +18°C° 0 mm 1 mps 755 mmHg 63%
    21:00 +16°C° 0 mm 1 mps 755 mmHg 65%
    22:00 +15°C° 0 mm 1 mps 755 mmHg 66%
    23:00 +13°C° 0 mm 1 mps 756 mmHg 68%

    29 May, Tuesday

    Time Temperature Precipitation Wind Pressure Humidity
    00:00 +13°C° 0 mm 1 mps 756 mmHg 71%
    01:00 +12°C° 0 mm 1 mps 756 mmHg 74%
    02:00 +12°C° 0 mm 1 mps 756 mmHg 76%
    03:00 +12°C° 0 mm 1 mps 756 mmHg 77%
    04:00 +12°C° 0 mm 1 mps 756 mmHg 78%
    05:00 +12°C° 0 mm 0 mps 756 mmHg 78%
    06:00 +14°C° 0 mm 0 mps 756 mmHg 71%
    07:00 +17°C° 0 mm 0 mps 756 mmHg 63%
    08:00 +19°C° 0 mm 0 mps 756 mmHg 55%
    09:00 +21°C° 0 mm 0 mps 755 mmHg 50%
    10:00 +23°C° 0 mm 0 mps 755 mmHg 45%
    11:00 +25°C° 0 mm 0 mps 755 mmHg 40%
    12:00 +27°C° 0 mm 1 mps 755 mmHg 38%
    13:00 +27°C° 0 mm 1 mps 754 mmHg 37%
    14:00 +27°C° 0 mm 1 mps 754 mmHg 36%
    15:00 +27°C° 0 mm 1 mps 753 mmHg 38%
    16:00 +27°C° 0 mm 1 mps 753 mmHg 39%
    17:00 +27°C° 0 mm 1 mps 753 mmHg 41%
    18:00 +25°C° 0 mm 1 mps 752 mmHg 49%
    19:00 +23°C° 0 mm 1 mps 752 mmHg 58%
    20:00 +19°C° 0 mm 0 mps 752 mmHg 66%
    21:00 +18°C° 0 mm 0 mps 752 mmHg 69%
    22:00 +16°C° 0 mm 0 mps 752 mmHg 72%
    23:00 +15°C° 0 mm 0 mps 752 mmHg 75%

    30 May, Wednesday

    Time Temperature Precipitation Wind Pressure Humidity
    00:00 +16°C° 0 mm 1 mps 751 mmHg 77%
    01:00 +15°C° 0 mm 1 mps 751 mmHg 80%
    02:00 +15°C° 0 mm 1 mps 751 mmHg 82%
    03:00 +15°C° 0 mm 1 mps 751 mmHg 82%
    04:00 +15°C° 0 mm 1 mps 751 mmHg 82%
    05:00 +15°C° 0 mm 1 mps 750 mmHg 83%
    06:00 +19°C° 0 mm 1 mps 750 mmHg 75%
    07:00 +21°C° 0 mm 1 mps 750 mmHg 68%
    08:00 +23°C° 0 mm 1 mps 750 mmHg 60%
    09:00 +24°C° 0 mm 1 mps 750 mmHg 55%
    10:00 +25°C° 0 mm 1 mps 750 mmHg 50%
    11:00 +27°C° 0 mm 2 mps 749 mmHg 45%
    12:00 +27°C° 0 mm 2 mps 749 mmHg 44%
    13:00 +27°C° 0 mm 2 mps 749 mmHg 43%
    14:00 +27°C° 0 mm 2 mps 749 mmHg 42%
    15:00 +27°C° 0 mm 2 mps 748 mmHg 43%
    16:00 +27°C° 0 mm 2 mps 748 mmHg 44%
    17:00 +27°C° 0 mm 2 mps 748 mmHg 46%
    18:00 +25°C° 0 mm 2 mps 748 mmHg 54%
    19:00 +23°C° 0 mm 1 mps 748 mmHg 61%
    20:00 +21°C° 0 mm 1 mps 747 mmHg 69%
    21:00 +20°C° 0 mm 1 mps 748 mmHg 72%
    22:00 +19°C° 0 mm 1 mps 748 mmHg 74%
    23:00 +16°C° 0 mm 1 mps 748 mmHg 77%
    Show more